MSR61 HELX-HECA

Flight info

Callsign MSR61
Flight time 0h 56m
Altitude 24000
Route LXR A727 CVO
Aircraft B738/M-SDE2E3FGHIRWXY/LB1

Departure

Time 2026-05-04 10:09
Airport Luxor International Airport (HELX)

Arrival

Time 2026-05-04 11:05
Airport Cairo International Airport (HECA)
Time Latitude Longitude Altitude Speed Heading
2026-05-04 09:28 25.67040 32.70008 328 ft 0 kts 292°
2026-05-04 09:53 25.67034 32.70024 327 ft 4 kts 295°
2026-05-04 09:53 25.67023 32.70050 329 ft 4 kts 297°
2026-05-04 09:53 25.67014 32.70070 327 ft 2 kts 265°
2026-05-04 09:53 25.67019 32.70081 329 ft 2 kts 214°
2026-05-04 09:54 25.67025 32.70085 328 ft 0 kts 211°
2026-05-04 10:00 25.67024 32.70085 328 ft 1 kts 211°
2026-05-04 10:02 25.66808 32.69980 329 ft 6 kts 202°
2026-05-04 10:04 25.66537 32.70144 330 ft 9 kts 122°
2026-05-04 10:04 25.66488 32.70174 327 ft 8 kts 183°
2026-05-04 10:04 25.66433 32.70153 330 ft 8 kts 202°
2026-05-04 10:04 25.66382 32.70129 330 ft 8 kts 203°
2026-05-04 10:05 25.66333 32.70106 331 ft 8 kts 203°
2026-05-04 10:05 25.66285 32.70083 328 ft 7 kts 203°
2026-05-04 10:05 25.66238 32.70061 328 ft 7 kts 203°
2026-05-04 10:05 25.66193 32.70041 327 ft 7 kts 201°
2026-05-04 10:06 25.66145 32.70020 331 ft 9 kts 203°
2026-05-04 10:06 25.66073 32.69985 331 ft 14 kts 203°
2026-05-04 10:06 25.65963 32.69937 331 ft 18 kts 194°
2026-05-04 10:08 25.65917 32.70092 330 ft 0 kts 23°
2026-05-04 10:09 25.66155 32.70202 332 ft 84 kts 22°
2026-05-04 10:09 25.66982 32.70569 332 ft 168 kts 18°
2026-05-04 10:09 25.68185 32.71138 917 ft 199 kts 24°
2026-05-04 10:09 25.69322 32.71943 2236 ft 189 kts 34°
2026-05-04 10:10 25.70459 32.72828 3218 ft 201 kts 29°
2026-05-04 10:10 25.71619 32.73815 3801 ft 223 kts 35°
2026-05-04 10:10 25.72875 32.74978 4098 ft 241 kts 35°
2026-05-04 10:10 25.74212 32.76155 4619 ft 248 kts 27°
2026-05-04 10:11 25.75851 32.76635 5192 ft 249 kts 352°
2026-05-04 10:11 25.77603 32.76214 5633 ft 264 kts 340°
2026-05-04 10:11 25.79396 32.75636 6331 ft 273 kts 339°
2026-05-04 10:11 25.81237 32.75045 7068 ft 277 kts 338°
2026-05-04 10:12 25.83092 32.74446 7836 ft 279 kts 337°
2026-05-04 10:12 25.84974 32.73845 8605 ft 284 kts 336°
2026-05-04 10:12 25.86884 32.73240 9375 ft 287 kts 335°
2026-05-04 10:12 25.88821 32.72630 10124 ft 292 kts 335°
2026-05-04 10:13 25.90818 32.72000 10514 ft 310 kts 336°
2026-05-04 10:13 25.93009 32.71304 10677 ft 334 kts 336°
2026-05-04 10:13 25.95300 32.70584 11000 ft 349 kts 337°
2026-05-04 10:13 25.97661 32.69854 11569 ft 354 kts 337°
2026-05-04 10:14 26.00010 32.69135 12242 ft 356 kts 337°
2026-05-04 10:14 26.02409 32.68402 12860 ft 359 kts 338°
2026-05-04 10:16 26.19730 32.63047 17578 ft 379 kts 337°
2026-05-04 10:16 26.22284 32.62254 18257 ft 382 kts 337°
2026-05-04 10:16 26.24853 32.61456 18829 ft 385 kts 337°
2026-05-04 10:16 26.27443 32.60651 19390 ft 388 kts 337°
2026-05-04 10:17 26.30059 32.59838 19926 ft 392 kts 337°
2026-05-04 10:17 26.32696 32.59021 20474 ft 395 kts 337°
2026-05-04 10:19 26.51726 32.53094 23958 ft 417 kts 337°
2026-05-04 10:19 26.54530 32.52217 24030 ft 419 kts 337°
2026-05-04 10:19 26.57334 32.51343 24032 ft 418 kts 337°
2026-05-04 10:19 26.60136 32.50470 24043 ft 418 kts 337°
2026-05-04 10:20 26.62937 32.49596 24050 ft 418 kts 337°
2026-05-04 10:20 26.65744 32.48718 24050 ft 419 kts 337°
2026-05-04 10:20 26.68593 32.47827 24062 ft 420 kts 337°
2026-05-04 10:20 26.71411 32.46945 24057 ft 420 kts 337°
2026-05-04 10:21 26.74221 32.46065 24063 ft 420 kts 337°
2026-05-04 10:21 26.77030 32.45185 24057 ft 420 kts 337°
2026-05-04 10:21 26.79845 32.44303 24051 ft 419 kts 337°
2026-05-04 10:21 26.82651 32.43423 24052 ft 419 kts 337°
2026-05-04 10:22 26.88110 32.41710 24057 ft 418 kts 337°
2026-05-04 10:22 26.90865 32.40845 24057 ft 417 kts 337°
2026-05-04 10:22 26.93669 32.39963 24079 ft 420 kts 337°
2026-05-04 10:23 26.96534 32.39059 24436 ft 424 kts 337°
2026-05-04 10:23 26.99369 32.38167 24950 ft 423 kts 337°
2026-05-04 10:25 27.18191 32.32240 26016 ft 387 kts 336°
2026-05-04 10:25 27.20775 32.31422 26025 ft 385 kts 336°
2026-05-04 10:25 27.23346 32.30608 26030 ft 383 kts 336°
2026-05-04 10:25 27.25869 32.29810 26036 ft 381 kts 336°
2026-05-04 10:26 27.28454 32.28992 26050 ft 380 kts 335°
2026-05-04 10:26 27.30986 32.28191 26058 ft 378 kts 335°
2026-05-04 10:26 27.33521 32.27390 26054 ft 377 kts 335°
2026-05-04 10:26 27.36042 32.26595 26063 ft 376 kts 335°
2026-05-04 10:27 27.38553 32.25802 26162 ft 371 kts 335°
2026-05-04 10:27 27.40999 32.25037 26606 ft 358 kts 335°
2026-05-04 10:27 27.43353 32.24301 27061 ft 346 kts 334°
2026-05-04 10:27 27.45674 32.23567 27099 ft 348 kts 334°
2026-05-04 10:28 27.47958 32.22838 27135 ft 349 kts 334°
2026-05-04 10:28 27.50297 32.22090 27169 ft 351 kts 334°
2026-05-04 10:28 27.52657 32.21337 27191 ft 353 kts 334°
2026-05-04 10:28 27.55022 32.20584 27220 ft 354 kts 334°
2026-05-04 10:29 27.57398 32.19829 27218 ft 356 kts 334°
2026-05-04 10:29 27.59784 32.19071 27228 ft 357 kts 334°
2026-05-04 10:29 27.62173 32.18312 27214 ft 359 kts 334°
2026-05-04 10:29 27.64588 32.17543 27204 ft 360 kts 334°
2026-05-04 10:30 27.66999 32.16779 27228 ft 360 kts 334°
2026-05-04 10:30 27.69418 32.16010 27231 ft 361 kts 334°
2026-05-04 10:30 27.71844 32.15239 27230 ft 362 kts 334°
2026-05-04 10:30 27.74274 32.14465 27231 ft 363 kts 334°
2026-05-04 10:31 27.76708 32.13691 27230 ft 363 kts 334°
2026-05-04 10:31 27.79138 32.12917 27236 ft 364 kts 334°
2026-05-04 10:32 27.93779 32.08242 26715 ft 375 kts 334°
2026-05-04 10:33 27.96308 32.07430 26314 ft 383 kts 334°
2026-05-04 10:33 27.98881 32.06608 25884 ft 380 kts 335°
2026-05-04 10:33 28.01372 32.05825 25445 ft 362 kts 334°
2026-05-04 10:33 28.03733 32.05081 25092 ft 344 kts 334°
2026-05-04 10:34 28.05987 32.04380 24864 ft 330 kts 333°
2026-05-04 10:34 28.08225 32.03676 24669 ft 339 kts 333°
2026-05-04 10:34 28.10525 32.02943 24420 ft 350 kts 334°
2026-05-04 10:34 28.12906 32.02186 24166 ft 359 kts 334°
2026-05-04 10:35 28.15332 32.01419 23927 ft 366 kts 334°
2026-05-04 10:35 28.17815 32.00637 23824 ft 373 kts 335°
2026-05-04 10:35 28.20361 31.99837 23368 ft 381 kts 335°
2026-05-04 10:35 28.22898 31.99049 23081 ft 376 kts 335°
2026-05-04 10:36 28.25405 31.98273 22804 ft 370 kts 335°
2026-05-04 10:36 28.27874 31.97506 22537 ft 367 kts 334°
2026-05-04 10:36 28.30303 31.96746 22295 ft 366 kts 334°
2026-05-04 10:36 28.32790 31.95964 22036 ft 366 kts 334°
2026-05-04 10:37 28.35241 31.95193 21787 ft 365 kts 334°
2026-05-04 10:37 28.37691 31.94424 21537 ft 364 kts 334°
2026-05-04 10:37 28.40094 31.93668 21293 ft 363 kts 334°
2026-05-04 10:37 28.42526 31.92901 21045 ft 362 kts 334°
2026-05-04 10:39 28.56114 31.88614 19642 ft 357 kts 334°
2026-05-04 10:39 28.58503 31.87859 19394 ft 356 kts 334°
2026-05-04 10:39 28.60884 31.87107 19147 ft 354 kts 334°
2026-05-04 10:40 28.63255 31.86358 18904 ft 353 kts 334°
2026-05-04 10:40 28.65617 31.85611 18664 ft 351 kts 334°
2026-05-04 10:40 28.67967 31.84867 18420 ft 350 kts 334°
2026-05-04 10:40 28.70310 31.84125 18143 ft 349 kts 334°
2026-05-04 10:41 28.72639 31.83388 17877 ft 346 kts 334°
2026-05-04 10:41 28.74955 31.82654 17622 ft 343 kts 334°
2026-05-04 10:41 28.77244 31.81930 17393 ft 341 kts 334°
2026-05-04 10:41 28.79523 31.81207 17155 ft 339 kts 334°
2026-05-04 10:42 28.81653 31.80531 16934 ft 337 kts 334°
2026-05-04 10:42 28.83907 31.79814 16703 ft 336 kts 334°
2026-05-04 10:42 28.86153 31.79100 16470 ft 335 kts 334°
2026-05-04 10:42 28.88391 31.78388 16250 ft 333 kts 334°
2026-05-04 10:43 28.90628 31.77676 16013 ft 333 kts 334°
2026-05-04 10:44 29.06078 31.72715 14412 ft 326 kts 334°
2026-05-04 10:45 29.08261 31.72005 14199 ft 325 kts 334°
2026-05-04 10:45 29.10428 31.71299 13970 ft 324 kts 334°
2026-05-04 10:45 29.12592 31.70595 13717 ft 322 kts 334°
2026-05-04 10:45 29.14743 31.69895 13482 ft 321 kts 335°
2026-05-04 10:46 29.16878 31.69200 13248 ft 319 kts 335°
2026-05-04 10:46 29.19009 31.68506 13018 ft 317 kts 335°
2026-05-04 10:46 29.21125 31.67817 12804 ft 315 kts 335°
2026-05-04 10:46 29.23228 31.67131 12587 ft 314 kts 335°
2026-05-04 10:47 29.25320 31.66448 12369 ft 312 kts 335°
2026-05-04 10:47 29.27349 31.65786 12158 ft 311 kts 335°
2026-05-04 10:47 29.29425 31.65108 11941 ft 310 kts 335°
2026-05-04 10:47 29.31496 31.64431 11729 ft 309 kts 336°
2026-05-04 10:49 29.45828 31.59746 10244 ft 294 kts 336°
2026-05-04 10:49 29.47776 31.59108 10079 ft 287 kts 336°
2026-05-04 10:50 29.49651 31.58497 10005 ft 276 kts 336°
2026-05-04 10:51 29.62257 31.54349 8491 ft 265 kts 337°
2026-05-04 10:52 29.64034 31.53764 8299 ft 265 kts 337°
2026-05-04 10:52 29.65798 31.53185 8123 ft 264 kts 337°
2026-05-04 10:52 29.67567 31.52603 7924 ft 264 kts 337°
2026-05-04 10:54 29.80637 31.53174 7302 ft 286 kts
2026-05-04 10:54 29.82652 31.53450 7304 ft 288 kts
2026-05-04 10:56 29.95804 31.55227 6380 ft 246 kts 360°
2026-05-04 10:56 29.97453 31.55450 6265 ft 232 kts 360°
2026-05-04 10:56 29.99030 31.55662 6194 ft 218 kts 360°
2026-05-04 10:57 30.00484 31.55856 6099 ft 204 kts 359°
2026-05-04 10:57 30.01830 31.56037 5999 ft 192 kts 359°
2026-05-04 10:57 30.03137 31.56209 5764 ft 187 kts 358°
2026-05-04 10:57 30.04419 31.56376 5491 ft 185 kts 358°
2026-05-04 10:58 30.05690 31.56542 5217 ft 183 kts 358°
2026-05-04 10:58 30.06948 31.56706 4961 ft 181 kts 358°
2026-05-04 10:58 30.08194 31.56872 4676 ft 181 kts 358°
2026-05-04 10:58 30.09442 31.57037 4398 ft 179 kts 359°
2026-05-04 10:59 30.10682 31.57200 4131 ft 179 kts 358°
2026-05-04 10:59 30.11911 31.57365 3864 ft 178 kts 358°
2026-05-04 10:59 30.13146 31.57531 3551 ft 179 kts 357°
2026-05-04 10:59 30.14376 31.57693 3290 ft 177 kts 357°
2026-05-04 11:00 30.15597 31.57855 3060 ft 176 kts 356°
2026-05-04 11:01 30.17856 31.53089 2143 ft 148 kts 240°
2026-05-04 11:02 30.17275 31.52115 2100 ft 144 kts 242°
2026-05-04 11:02 30.16658 31.51200 2020 ft 146 kts 237°
2026-05-04 11:05 30.10510 31.42844 373 ft 11 kts 253°
2026-05-04 11:06 30.10489 31.42763 373 ft 10 kts 254°
2026-05-04 11:06 30.10470 31.42683 373 ft 10 kts 254°
2026-05-04 11:06 30.10447 31.42607 373 ft 10 kts 249°
2026-05-04 11:06 30.10413 31.42539 373 ft 10 kts 234°
2026-05-04 11:08 30.10119 31.42143 373 ft 11 kts 229°
2026-05-04 11:10 30.09902 31.41540 373 ft 13 kts 259°
2026-05-04 11:12 30.09796 31.40894 373 ft 11 kts 259°
2026-05-04 11:12 30.09786 31.40812 373 ft 10 kts 267°
2026-05-04 11:12 30.09811 31.40739 373 ft 10 kts 314°
2026-05-04 11:12 30.09862 31.40685 373 ft 10 kts 319°
2026-05-04 11:13 30.09914 31.40634 373 ft 10 kts 319°
2026-05-04 11:13 30.09965 31.40583 373 ft 10 kts 318°
2026-05-04 11:13 30.09999 31.40550 373 ft 10 kts 319°
2026-05-04 11:13 30.10048 31.40501 373 ft 9 kts 319°
2026-05-04 11:14 30.10065 31.40484 373 ft 9 kts 319°
2026-05-04 11:14 30.10173 31.40376 373 ft 9 kts 319°
2026-05-04 11:16 30.10363 31.40187 373 ft 7 kts 319°
2026-05-04 11:16 30.10392 31.40158 373 ft 0 kts 319°
2026-05-04 11:16 30.10399 31.40151 373 ft 2 kts 319°
2026-05-04 11:17 30.10447 31.40125 373 ft 16 kts 349°
2026-05-04 11:17 30.10547 31.40201 373 ft 19 kts 48°
2026-05-04 11:19 30.10489 31.39944 373 ft 10 kts 257°
2026-05-04 11:19 30.10509 31.39874 373 ft 10 kts 317°
2026-05-04 11:19 30.10574 31.39844 373 ft 10 kts 344°
2026-05-04 11:19 30.10644 31.39823 373 ft 10 kts 347°
2026-05-04 11:20 30.10711 31.39803 373 ft 10 kts 345°
2026-05-04 11:20 30.10777 31.39783 373 ft 10 kts 345°
2026-05-04 11:20 30.10841 31.39763 373 ft 9 kts 346°
2026-05-04 11:20 30.10881 31.39715 373 ft 9 kts 271°
2026-05-04 11:22 30.10870 31.39658 373 ft 0 kts 254°